Flag for Canada Weather past 2 weeks in Kamloops, British Columbia, Canada

Now
70 °F

Scattered clouds.


Feels Like: 70 °F
Forecast: 52 / 70 °F
Wind: 5 mph from North

Location: Kamloops

Current Time: May 25, 2015 at 3:44:24 PM

Latest Report: May 25, 2015 at 3:00 PM


Visibility: 40 mi

Pressure: 29.90 "Hg

Humidity: 40%

Dew point: 45 °F

Location of KamloopsLocation

Historic Weather in Kamloops — Graph

°F

Kamloops temperature yesterday

Maximum temperature yesterday: 70 °F (at 5:00 PM)
Minimum temperature yesterday: 55 °F (at 10:00 PM)
Average temperature yesterday: 60 °F

Past Weeks' High & Low Weather Summary

 TemperatureHumidityPressure
High88 °F (May 21, 3:00 PM)94% (May 25, 7:00 AM)30.17 "Hg (May 25, 7:00 AM)
Low43 °F (May 12, 6:00 AM)13% (May 10, 4:00 PM)29.69 "Hg (May 13, 3:00 PM)
Average64 °F50%29.91 "Hg
* Reported May 10 2:00 PM — May 25 2:00 PM, Kamloops, Weather by CustomWeather, © 2015

Note: Actual official high and low records may vary slightly from our data, if they occured in-between our weather recording intervals... More about our weather records

Advertising

Kamloops weather history for previous 24 hours

 ConditionsComfort  
Time TempWeatherWind HumidityBarometerVisibility
2:00 PM
Mon, May 25
68 °FScattered clouds.6 mph40%29.92 "Hg40 mi
1:00 PM66 °FBroken clouds.9 mph49%29.94 "Hg40 mi
12:00 PM61 °FBroken clouds.10 mph72%29.96 "Hg40 mi
11:00 AM55 °FBroken clouds.10 mph82%29.97 "Hg40 mi
10:53 AM55 °FPartly sunny.10 mph77%29.97 "Hg40 mi
10:00 AM55 °FPartly sunny.6 mph77%29.97 "Hg40 mi
9:00 AM55 °FLight rain. Partly sunny.5 mph72%29.96 "Hg40 mi
8:00 AM54 °FPartly sunny.3 mph77%29.96 "Hg40 mi
7:00 AM50 °FBroken clouds.3 mph94%29.96 "Hg40 mi
6:00 AM52 °FPartly sunny.No wind88%29.96 "Hg40 mi
5:00 AM52 °FPassing clouds.No wind82%29.95 "Hg40 mi
4:00 AM52 °FPassing clouds.3 mph88%29.96 "Hg40 mi
3:00 AM52 °FPartly cloudy.2 mph82%29.95 "Hg40 mi
2:00 AM54 °FPassing clouds.2 mph77%29.95 "Hg40 mi
1:00 AM54 °FPassing clouds.3 mph77%29.95 "Hg40 mi
12:00 AM55 °FPartly cloudy.No wind82%29.95 "Hg40 mi
11:00 PM
Sun, May 24
55 °FPartly cloudy.No wind82%29.96 "Hg40 mi
10:00 PM55 °FPassing clouds.2 mph82%29.97 "Hg40 mi
9:00 PM57 °FSprinkles. Broken clouds.6 mph72%29.97 "Hg40 mi
8:00 PM61 °FScattered showers. Broken clouds.9 mph59%29.98 "Hg40 mi
7:00 PM63 °FScattered showers. Broken clouds.6 mph49%29.95 "Hg40 mi
6:00 PM64 °FBroken clouds.13 mph60%29.94 "Hg40 mi
5:00 PM70 °FBroken clouds.5 mph50%29.95 "Hg40 mi
4:00 PM68 °FBroken clouds.6 mph56%29.96 "Hg40 mi
3:00 PM64 °FPartly sunny.9 mph73%29.98 "Hg40 mi
Weather by CustomWeather, © 2015

See weather overviewHow to use our weather pages